Regional Weather Roundup
Issued by NWS State College, PA

Home | Current Version | Previous Version | Graphics & Text | Print | Product List | Glossary On
Versions: 1 2 3 4 5 6 7 8 9 10 11 12 13 14 15 16 17 18 19 20 21 22 23 24 25 26 27 28 29 30 31 32 33 34 35 36 37 38 39 40 41 42 43 44 45 46 47 48 49 50
000
ASUS41 KCTP 251710
RWRCTP

REGIONAL WEATHER ROUNDUP
NATIONAL WEATHER SERVICE STATE COLLEGE PA
100 PM EDT SUN SEP 25 2016

Note: "fair" indicates few or no clouds below 12,000 feet with no
significant weather and/or obstructions to visibility.

* = STATION THAT DOES NOT REPORT PRECIPITATION /E.G. RAIN...SNOW...ETC/
    THUNDER OR FOG.

PAZ002>004-007>009-013>016-020>023-029>032-251800-
WESTERN PENNSYLVANIA

CITY           SKY/WX    TMP DP  RH WIND       PRES   REMARKS
ERIE           SUNNY     67  44  43 N6        30.21F
MEADVILLE      SUNNY     63  40  42 E6        30.21F
FRANKLIN*        N/A     64  45  48 NE5       30.21F
NEW CASTLE     FAIR      69  50  50 VRB3      30.19F
BEAVER COUNTY  NOT AVBL
BUTLER*        SUNNY     66  48  52 SE5       30.22F
PITTSBURGH INT PTSUNNY   69  49  48 VRB3      30.17F
PITTSBURGH     SUNNY     70  47  43 NE5       30.17F
INDIANA*       SUNNY     66  48  52 NW5       30.22S
LATROBE        SUNNY     68  50  52 CALM      30.19F
WASHINGTON CO* SUNNY     70  54  56 E6        30.18F
$$

PAZ004>006-010>012-017>019-024>028-033>037-041-042-045-046-049>053-251800-
CENTRAL PENNSYLVANIA

CITY           SKY/WX    TMP DP  RH WIND       PRES   REMARKS
BRADFORD       SUNNY     60  41  49 E5        30.23F
DUBOIS         SUNNY     63  40  42 VRB3      30.21F
CLEARFIELD     SUNNY     64  45  49 NE6       30.22F
JOHNSTOWN      SUNNY     63  47  55 SE3       30.20F
ALTOONA        SUNNY     66  42  41 SE5       30.21F
STATE COLLEGE  SUNNY     63  46  55 CALM      30.22F
WILLIAMSPORT   SUNNY     67  45  45 W5        30.20F
SELINSGROVE    SUNNY     68  42  38 VRB3      30.21F
FT INDIANTOWN  SUNNY     66  44  44 N6        30.20F
CAPITAL CITY   SUNNY     68  40  35 SE6       30.21F
HARRISBURG     MOSUNNY   69  45  41 SW5       30.20F
YORK           SUNNY     67  44  43 CALM      30.21F
$$

PAZ038>040-043-044-047-048-054-055-060>062-067>071-251800-
EASTERN PENNSYLVANIA

CITY           SKY/WX    TMP DP  RH WIND       PRES   REMARKS
SCRANTON       SUNNY     65  39  38 N10       30.21F
MOUNT POCONO   SUNNY     60  37  42 VRB6      30.20F
ALLENTOWN      SUNNY     67  43  41 CALM      30.20F
QUAKERTOWN*    SUNNY     66  41  39 NW3       30.21F
READING        SUNNY     66  42  41 NW6       30.20F
LANCASTER      SUNNY     68  42  38 VRB7      30.21F
COATESVILLE    SUNNY     64  41  42 CALM      30.22F
POTTSTOWN      SUNNY     67  42  40 N8        30.21F
BLUE BELL      SUNNY     68  43  40 SW3       30.19F
DOYLESTOWN     SUNNY     69  43  38 N5        30.19F
WILLOW GROVE   NOT AVBL
NORTH PHILA    SUNNY     70  42  36 N8        30.21F
PHILADELPHIA   MOSUNNY   70  41  34 N7        30.20F
$$




USA.gov is the U.S. government's official web portal to all federal, state and local government web resources and services.